Home > Weather > Monrovia > Past weeks

Flag for Liberia Past Weather in Monrovia, Liberia — Yesterday and Last 2 Weeks

Now
77 °F

Rain. Partly cloudy.


Feels Like: 78 °F
Forecast: N/A
Wind: No wind

Location: Roberts Field

Current Time: May 25, 2016 at 8:56:12 PM

Latest Report: May 25, 2016 at 8:30 PM


Visibility: 4 mi

Pressure: 29.95 "Hg

Humidity: 94%

Dew Point: 75 °F

Location of MonroviaLocation

Past Weather in Monrovia — Graph

°F

Monrovia Temperature Yesterday

Maximum temperature yesterday: 86 °F (at 11:00 AM)
Minimum temperature yesterday: 77 °F (at 1:00 AM)
Average temperature yesterday: 81 °F

High & Low Weather Summary for the Past Weeks

 TemperatureHumidityPressure
High90 °F (May 11, 2:00 PM)100% (May 12, 9:00 PM)30.04 "Hg (May 12, 9:00 PM)
Low73 °F (May 13, 7:30 AM)66% (May 12, 5:00 PM)29.83 "Hg (May 11, 3:00 PM)
Average81 °F89%29.93 "Hg
* Reported May 10 7:00 PM — May 25 7:30 PM, Monrovia, Weather by CustomWeather, © 2016

Note: Actual official high and low records may vary slightly from our data, if they occured in-between our weather recording intervals... More about our weather records

Advertising

Monrovia Weather History for the Previous 24 Hours

Scroll right to see more
 ConditionsComfort  
Time TempWeatherWind HumidityBarometerVisibility
7:30 PM
Wed, May 25
77 °FRain. Broken clouds.9 mph94%29.92 "Hg4 mi
7:00 PM77 °FDrizzle. Cloudy.No wind94%29.92 "Hg6 mi
6:30 PM77 °FLight rain. Cloudy.No wind94%29.92 "Hg6 mi
6:00 PM77 °FRain. Cloudy.No wind94%29.89 "Hg5 mi
5:30 PM77 °FRain. Cloudy.No wind94%29.89 "Hg5 mi
5:00 PM77 °FDrizzle. Cloudy.6 mph94%29.89 "Hg5 mi
4:30 PM84 °FPartly sunny.6 mph79%29.89 "HgN/A
4:00 PM84 °FPartly sunny.6 mph79%29.89 "HgN/A
3:30 PM84 °FPartly sunny.9 mph74%29.89 "HgN/A
3:00 PM84 °FPartly sunny.7 mph79%29.89 "HgN/A
2:30 PM84 °FPartly sunny.7 mph79%29.92 "HgN/A
2:00 PM84 °FPartly sunny.9 mph79%29.92 "HgN/A
1:30 PM84 °FPartly sunny.3 mph79%29.95 "HgN/A
1:00 PM84 °FPartly sunny.6 mph79%29.95 "HgN/A
12:30 PM82 °FPartly sunny.6 mph79%29.95 "HgN/A
12:00 PM81 °FPartly sunny.No wind84%29.98 "HgN/A
11:30 AM79 °FPartly sunny.No wind89%29.98 "HgN/A
11:00 AM79 °FPartly sunny.No wind89%29.98 "HgN/A
10:30 AM79 °FPartly sunny.No wind89%29.98 "HgN/A
10:00 AM77 °FPartly sunny.No wind94%29.98 "HgN/A
9:30 AM75 °FPartly sunny.No wind94%29.95 "HgN/A
9:00 AM75 °FPartly sunny.No wind94%29.95 "HgN/A
8:30 AM75 °FLight rain. Partly sunny.No wind94%29.95 "Hg6 mi
8:00 AM75 °FLight rain. Partly sunny.No wind94%29.95 "Hg6 mi
7:00 AM75 °FPassing clouds.No wind94%29.95 "Hg6 mi
6:00 AM75 °FPassing clouds.No wind94%29.95 "Hg6 mi
4:00 AM75 °FLight rain. Passing clouds.No wind94%29.92 "Hg6 mi
3:00 AM75 °FLight rain. Passing clouds.No wind94%29.92 "Hg6 mi
2:00 AM75 °FThunderstorms. Passing clouds.No wind94%29.95 "Hg4 mi
1:00 AM77 °FThunderstorms. Partly cloudy.No wind100%29.98 "Hg3 mi
12:00 AM77 °FThunderstorms. Partly cloudy.No wind100%29.98 "Hg2 mi
11:00 PM
Tue, May 24
79 °FThunderstorms. Partly cloudy.6 mph94%29.98 "Hg2 mi
10:30 PM81 °FThunderstorms. Passing clouds.No wind89%29.98 "Hg4 mi
10:00 PM81 °FThunderstorms. Passing clouds.No wind89%29.98 "HgN/A
9:30 PM81 °FThunderstorms. Passing clouds.6 mph89%29.95 "HgN/A
9:00 PM81 °FPassing clouds.7 mph89%29.95 "HgN/A
8:30 PM81 °FPassing clouds.6 mph89%29.92 "HgN/A
8:00 PM81 °FPassing clouds.9 mph89%29.92 "HgN/A
Weather by CustomWeather, © 2016

See weather overviewHow to use our weather pages